NOAA 16 DEB, 41078

Orbit data source: Space-Track

NOAA 16 DEB, 41078 is space debris in SSO originally from a launch on Thu, 21 Sep 2000 UTC launched from the Air Force Western Test Range (AFWTR). Debris objects in space refer to the collection of defunct objects orbiting the Earth. Examples of debris include non-operational satellites, rocket bodies, and fragments generated from explosions, collisions, or faulty payload assembly.

Loading next visibility...
Identifier
41078, 2000-055AM
Orbit
SSO
Country
Flag of USUS
Related business
Manufacturer
Unknown
Mission
Spacecraft
Bus & Motor
Unknown
Mass
Unknown
Launch date (UTC)
2000-09-21 (26 years ago)
Launch vehicle
Unknown
Launch site
Air Force Western Test Range (AFWTR)
Object type
Payload
Rocket body
Debris
Shape & HBR
Unknown shape, 0.1 m
Radar Cross Section
Medium (>0.1 m² and <1 m²)

Expand to show TLE details & history
Last TLE update: 1 week ago

TLE from 1 week ago
0 NOAA 16 DEB
1 41078U 00055AM  26153.27577392  .00000202  00000-0  24994-3 0  9994
2 41078  98.9313 270.7824 0288981  55.8889 306.9312 13.58454413520744
Epoch: 2026-06-02T06:37Z
TLE epoch observation values (Epoch: 2026-06-02T06:37:06.866Z)
Latitude
-0.00007°
Longitude
-79.24727°
Altitude
919.35 km
Speed
7.454 km/s
True Right ascension
18h 03m 07s
True Declination
0° 00' 00"
Sunlit
Object was in full shadow at epoch
Visualization orbit readout
Latitude
Unknown
Longitude
Unknown
Altitude
Unknown
Speed
Unknown
Apparent Right ascension
Unknown
Apparent Declination
Unknown
Sunlit
N/A
Visualization observer readout
Local Sidereal Time
06:11:32
Azimuth
Unknown
Elevation
Unknown
Doppler factor
Unknown
Orbital elements
Apogee altitude
1,252.891 km
Perigee altitude
824.234 km
Semi-major axis
7,416.7 km
Eccentricity
0.0289
Inclination
98.9313°
RAAN
270.7824°
Arg. of periapsis
55.8889°
True anomaly
304.22648°
Mean anomaly
306.9312°
Eccentric anomaly
305.58466°
Mean motion
3.39803 °/min
Orbital period
105.94 mins
BSTAR
0.00024994
Loading maneuver chart data...
Computing Atmospheric mass density...
Loading historical data...
Loading historical data...
Loading historical data...
Loading historical data...
Loading historical data...
Loading historical data...
Loading historical data...

Documentation

Showing up to 5 results
|